Weather History for Molokai, HI

Change the Weather History Date:

Monday, February 17, 2014

  Actual Average Record
Temperature  
Mean Temperature 72 °F -  
Max Temperature 75 °F 77 °F 82 °F (1981)
Min Temperature 69 °F 63 °F 54 °F (1986)
Cooling Degree Days 7    
Growing Degree Days 22 (Base 50)    
Moisture  
Dew Point 70 °F    
Average Humidity 96    
Maximum Humidity 100    
Minimum Humidity 79    
Precipitation  
Precipitation 0.13 in - - ()
Sea Level Pressure  
Sea Level Pressure 29.91 in    
Wind  
Wind Speed 10 mph (SE)    
Max Wind Speed 16 mph    
Max Gust Speed 26 mph    
Visibility 9 miles    
Events Rain    
Averages and records for this station are not official NWS values.
T = Trace of Precipitation, MM = Missing Value Source: NWS Daily Summary

Daily Weather History Graph

Daily Weather History Graph

Search for Another Location

Airport:

Trip Planner

Search our weather history database for the weather conditions in past years. The results will help you decide how hot, cold, wet, or windy it might be!

Date:

Astronomy

Feb. 17, 2014 Rise Set
Actual Time 6:57 AM HST 6:27 PM HST
Civil Twilight 6:34 AM HST 6:50 PM HST
Nautical Twilight 6:08 AM HST 7:16 PM HST
Astronomical Twilight 5:42 AM HST 7:42 PM HST
Moon 9:03 PM HST (2/17) 8:29 AM HST (2/17)
Length of Visible Light 12h 15m
Length of Day
11h 30m
Waning Gibbous, 92% of the Moon is Illuminated
Feb 17
Waning Gibbous
Feb 22
Last Quarter
Feb 28
New
Mar 8
First Quarter
Mar 16
Full

Hourly Weather History & Observations

Time (HST) Temp. Dew Point Humidity Pressure Visibility Wind Dir Wind Speed Gust Speed Precip Events Conditions
12:54 AM 71.1 °F 69.1 °F 93% 29.94 in 10.0 mi South 11.5 mph - 0.00 in   Mostly Cloudy
1:54 AM 70.0 °F 70.0 °F 100% 29.93 in 10.0 mi SSE 10.4 mph - 0.00 in Rain Light Rain
2:54 AM 70.0 °F 70.0 °F 100% 29.92 in 10.0 mi SSE 11.5 mph - 0.01 in Rain Light Rain
3:41 AM 69.8 °F 69.8 °F 100% 29.89 in 10.0 mi SE 10.4 mph - 0.00 in Rain Light Rain
3:54 AM 70.0 °F 70.0 °F 100% 29.91 in 9.0 mi SE 9.2 mph - 0.00 in Rain Light Rain
4:54 AM 70.0 °F 68.0 °F 93% 29.91 in 10.0 mi SSE 15.0 mph 21.9 mph 0.01 in Rain Light Rain
5:54 AM 70.0 °F 70.0 °F 100% 29.92 in 10.0 mi SSE 9.2 mph - 0.01 in Rain Light Rain
6:54 AM 70.0 °F 70.0 °F 100% 29.92 in 10.0 mi SE 9.2 mph - 0.00 in Rain Light Rain
7:54 AM 69.1 °F 69.1 °F 100% 29.95 in 8.0 mi ESE 4.6 mph - 0.01 in Rain Light Rain
8:54 AM 71.1 °F 71.1 °F 100% 29.96 in 6.0 mi ESE 6.9 mph - 0.02 in Rain Light Rain
9:54 AM 72.0 °F 72.0 °F 100% 29.96 in 8.0 mi SSE 6.9 mph - 0.00 in Rain Light Rain
10:54 AM 72.0 °F 72.0 °F 100% 29.94 in 9.0 mi SE 9.2 mph - 0.00 in Rain Light Rain
11:54 AM 72.0 °F 71.1 °F 97% 29.92 in 9.0 mi East 4.6 mph - 0.00 in   Overcast
12:54 PM 72.0 °F 69.1 °F 91% 29.85 in 10.0 mi East 12.7 mph - 0.00 in Rain Light Rain
1:54 PM 73.9 °F 69.1 °F 85% 29.85 in 10.0 mi SE 12.7 mph 19.6 mph 0.00 in   Overcast
2:54 PM 75.0 °F 69.1 °F 82% 29.87 in 10.0 mi SSE 13.8 mph 23.0 mph N/A   Overcast
3:47 PM 75.2 °F 69.8 °F 83% 29.85 in 10.0 mi SE 15.0 mph - N/A   Mostly Cloudy
3:54 PM 75.0 °F 68.0 °F 79% 29.87 in 10.0 mi SSE 12.7 mph 20.7 mph N/A   Overcast
4:54 PM 73.9 °F 69.1 °F 85% 29.86 in 10.0 mi SSE 11.5 mph - N/A   Mostly Cloudy
5:01 PM 73.4 °F 69.8 °F 88% 29.86 in 9.0 mi SSE 6.9 mph - N/A   Clear
5:54 PM 73.9 °F 68.0 °F 82% 29.90 in 10.0 mi ESE 6.9 mph - N/A   Mostly Cloudy
6:54 PM 73.9 °F 69.1 °F 85% 29.92 in 10.0 mi SE 9.2 mph - N/A   Mostly Cloudy
7:34 PM 71.6 °F 71.6 °F 100% 29.92 in 2.5 mi South 16.1 mph 26.5 mph 0.04 in Rain Heavy Rain
7:41 PM 71.6 °F 71.6 °F 100% 29.92 in 4.0 mi SSE 11.5 mph - 0.06 in Rain Light Rain
7:54 PM 72.0 °F 72.0 °F 100% 29.95 in 10.0 mi South 5.8 mph - 0.06 in   Overcast
8:08 PM 71.6 °F 71.6 °F 100% 29.93 in 8.0 mi SSE 8.1 mph - 0.01 in Rain Light Rain
8:21 PM 71.6 °F 71.6 °F 100% 29.92 in 9.0 mi SSE 10.4 mph - 0.01 in   Overcast
8:46 PM 71.6 °F 71.6 °F 100% 29.92 in 9.0 mi SE 11.5 mph - 0.01 in Rain Light Rain
8:54 PM 72.0 °F 72.0 °F 100% 29.92 in 9.0 mi SE 10.4 mph - 0.01 in   Mostly Cloudy
9:01 PM 71.6 °F 71.6 °F 100% 29.92 in 9.0 mi SSE 12.7 mph - N/A   Mostly Cloudy
9:54 PM 72.0 °F 72.0 °F 100% 29.95 in 10.0 mi SSE 9.2 mph - N/A   Mostly Cloudy
10:02 PM 71.6 °F 71.6 °F 100% 29.94 in 10.0 mi South 9.2 mph - N/A   Mostly Cloudy
10:54 PM 72.0 °F 72.0 °F 100% 29.94 in 10.0 mi SE 8.1 mph - N/A   Mostly Cloudy
11:15 PM 71.6 °F 71.6 °F 100% 29.94 in 10.0 mi South 4.6 mph - N/A   Partly Cloudy
11:54 PM 72.0 °F 72.0 °F 100% 29.94 in 10.0 mi South 8.1 mph - N/A   Clear